Weather History for KIGQ - November, 2013

Change the Weather History Date:

Tuesday, November 12, 2013

  Actual Average (KMDW) Record (KMDW)
Temperature  
Mean Temperature 28 °F 43 °F  
Max Temperature 33 °F 51 °F 70 °F (1949)
Min Temperature 22 °F 36 °F 10 °F (1986)
Degree Days  
Heating Degree Days 38 22  
Month to date heating degree days 230  
Since 1 July heating degree days 661  
Cooling Degree Days 0 0  
Month to date cooling degree days 0  
Year to date cooling degree days 1045  
Moisture  
Dew Point 17 °F    
Average Humidity 65    
Maximum Humidity 78    
Minimum Humidity 45    
Precipitation  
Precipitation 0.00 in 0.12 in 0.70 in (1992)
Month to date precipitation 1.37  
Year to date precipitation 34.47  
Sea Level Pressure  
Sea Level Pressure 30.61 in    
Wind  
Wind Speed 10 mph (NW)    
Max Wind Speed 15 mph    
Max Gust Speed 21 mph    
Visibility 10 miles    
Events      
T = Trace of Precipitation, MM = Missing Value Source: NWS Daily Summary

Daily Weather History Graph

Daily Weather History Graph

Search for Another Location

Airport or City:

Trip Planner

Search our weather history database for the weather conditions in past years. The results will help you decide how hot, cold, wet, or windy it might be!

Date:

Astronomy

Nov. 12, 2013 Rise Set
Actual Time 6:35 AM CST 4:32 PM CST
Civil Twilight 6:05 AM CST 5:02 PM CST
Nautical Twilight 5:32 AM CST 5:35 PM CST
Astronomical Twilight 4:59 AM CST 6:08 PM CST
Moon 1:50 PM CST (11/12) 1:21 AM CST (11/12)
Length of Visible Light 10h 56m
Length of Day
9h 57m
Waxing Gibbous, 76% of the Moon is Illuminated
Nov 12
Waxing Gibbous
Nov 17
Full
Nov 25
Last Quarter
Dec 2
New
Dec 9
First Quarter

Hourly Weather History & Observations

Time (CST) Temp. Windchill Dew Point Humidity Pressure Visibility Wind Dir Wind Speed Gust Speed Precip Events Conditions
12:15 AM 26.6 °F 16.2 °F 16.5 °F 66% 30.47 in 10.0 mi NW 11.5 mph - N/A   Scattered Clouds
12:35 AM 26.2 °F 15.2 °F 16.5 °F 67% 30.48 in 10.0 mi NNW 12.7 mph 17.3 mph N/A   Mostly Cloudy
12:55 AM 25.7 °F 15.1 °F 16.5 °F 68% 30.48 in 10.0 mi NNW 11.5 mph 18.4 mph N/A   Scattered Clouds
1:15 AM 25.7 °F 15.1 °F 16.7 °F 69% 30.48 in 10.0 mi NW 11.5 mph 18.4 mph N/A   Scattered Clouds
1:35 AM 25.7 °F 15.1 °F 16.7 °F 69% 30.49 in 10.0 mi NW 11.5 mph - N/A   Scattered Clouds
1:55 AM 26.2 °F 15.8 °F 17.2 °F 69% 30.50 in 10.0 mi NNW 11.5 mph 18.4 mph N/A   Mostly Cloudy
2:15 AM 25.7 °F 15.7 °F 16.5 °F 68% 30.50 in 10.0 mi NNW 10.4 mph - N/A   Overcast
2:35 AM 25.5 °F 14.9 °F 16.7 °F 69% 30.51 in 10.0 mi NW 11.5 mph - N/A   Mostly Cloudy
2:55 AM 25.7 °F 14.6 °F 16.7 °F 69% 30.51 in 10.0 mi NW 12.7 mph 18.4 mph N/A   Mostly Cloudy
3:15 AM 25.2 °F 15.1 °F 16.3 °F 69% 30.52 in 10.0 mi NW 10.4 mph - N/A   Scattered Clouds
3:35 AM 24.8 °F 13.4 °F 16.0 °F 69% 30.52 in 10.0 mi NW 12.7 mph - N/A   Clear
3:55 AM 24.8 °F 14.0 °F 16.0 °F 69% 30.53 in 10.0 mi NNW 11.5 mph 16.1 mph N/A   Clear
4:15 AM 24.8 °F 14.0 °F 15.8 °F 69% 30.54 in 10.0 mi NW 11.5 mph - N/A   Scattered Clouds
4:35 AM 24.8 °F 13.4 °F 16.2 °F 70% 30.55 in 10.0 mi NW 12.7 mph - N/A   Scattered Clouds
4:55 AM 24.8 °F 15.3 °F 16.0 °F 69% 30.56 in 10.0 mi NW 9.2 mph - N/A   Clear
5:15 AM 24.8 °F 14.0 °F 16.2 °F 70% 30.57 in 10.0 mi NNW 11.5 mph 19.6 mph N/A   Clear
5:35 AM 25.2 °F 15.1 °F 16.3 °F 69% 30.58 in 10.0 mi NW 10.4 mph 19.6 mph N/A   Mostly Cloudy
5:55 AM 25.3 °F 15.3 °F 16.2 °F 68% 30.59 in 10.0 mi NNW 10.4 mph 19.6 mph N/A   Overcast
6:15 AM 25.2 °F 12.9 °F 16.2 °F 69% 30.60 in 10.0 mi NNW 15.0 mph 19.6 mph N/A   Overcast
6:35 AM 24.8 °F 14.0 °F 16.0 °F 69% 30.61 in 10.0 mi NW 11.5 mph 17.3 mph N/A   Mostly Cloudy
6:55 AM 24.6 °F 14.4 °F 16.3 °F 71% 30.61 in 10.0 mi NW 10.4 mph - N/A   Clear
7:15 AM 24.8 °F 14.6 °F 16.7 °F 71% 30.62 in 10.0 mi NW 10.4 mph 16.1 mph N/A   Clear
7:35 AM 24.8 °F 15.3 °F 16.7 °F 71% 30.63 in 10.0 mi NW 9.2 mph - N/A   Clear
7:55 AM 25.7 °F 15.7 °F 17.2 °F 70% 30.64 in 10.0 mi NW 10.4 mph - N/A   Scattered Clouds
8:15 AM 27.0 °F 16.7 °F 18.1 °F 69% 30.65 in 10.0 mi NW 11.5 mph - N/A   Scattered Clouds
8:35 AM 27.5 °F 16.3 °F 19.0 °F 71% 30.65 in 10.0 mi NW 13.8 mph 17.3 mph N/A   Scattered Clouds
8:55 AM 28.2 °F 17.7 °F 19.4 °F 70% 30.66 in 10.0 mi NNW 12.7 mph - N/A   Clear
9:15 AM 29.3 °F 18.2 °F 19.8 °F 68% 30.66 in 10.0 mi NNW 15.0 mph 20.7 mph N/A   Clear
9:35 AM 29.8 °F 20.9 °F 20.1 °F 67% 30.67 in 10.0 mi NNW 10.4 mph 20.7 mph N/A   Clear
9:55 AM 30.4 °F 20.5 °F 20.8 °F 68% 30.67 in 10.0 mi NNW 12.7 mph 19.6 mph N/A   Clear
10:15 AM 30.9 °F 21.2 °F 20.7 °F 66% 30.67 in 10.0 mi NNW 12.7 mph - N/A   Clear
10:35 AM 31.1 °F 23.7 °F 21.0 °F 66% 30.68 in 10.0 mi NNW 8.1 mph 16.1 mph N/A   Clear
10:55 AM 31.5 °F 23.5 °F 20.8 °F 65% 30.67 in 10.0 mi NNW 9.2 mph 16.1 mph N/A   Clear
11:15 AM 31.5 °F 24.2 °F 19.9 °F 62% 30.67 in 10.0 mi North 8.1 mph - N/A   Clear
11:35 AM 32.0 °F 23.6 °F 20.3 °F 62% 30.67 in 10.0 mi NNW 10.4 mph - N/A   Scattered Clouds
11:55 AM 32.0 °F 23.6 °F 19.4 °F 60% 30.66 in 10.0 mi NW 10.4 mph - N/A   Scattered Clouds
12:15 PM 32.4 °F 24.6 °F 18.9 °F 58% 30.66 in 10.0 mi NNW 9.2 mph - N/A   Scattered Clouds
12:35 PM 32.5 °F 24.2 °F 18.0 °F 55% 30.66 in 10.0 mi NNW 10.4 mph 17.3 mph N/A   Scattered Clouds
12:55 PM 32.2 °F 25.8 °F 15.1 °F 49% 30.66 in 10.0 mi NNW 6.9 mph - N/A   Scattered Clouds
1:15 PM 32.7 °F 24.5 °F 16.2 °F 51% 30.65 in 10.0 mi WNW 10.4 mph - N/A   Clear
1:35 PM 33.1 °F 23.9 °F 16.3 °F 50% 30.65 in 10.0 mi NNW 12.7 mph 19.6 mph N/A   Clear
1:55 PM 32.5 °F 27.1 °F 14.5 °F 48% 30.65 in 10.0 mi NNW 5.8 mph 10.4 mph N/A   Clear
2:15 PM 32.9 °F 25.3 °F 15.1 °F 48% 30.65 in 10.0 mi NNW 9.2 mph - N/A   Clear
2:35 PM 32.9 °F 26.7 °F 14.2 °F 46% 30.64 in 10.0 mi WNW 6.9 mph - N/A   Clear
2:55 PM 32.9 °F 27.5 °F 15.1 °F 48% 30.65 in 10.0 mi West 5.8 mph - N/A   Clear
3:15 PM 32.5 °F 24.2 °F 14.9 °F 48% 30.64 in 10.0 mi NW 10.4 mph - N/A   Clear
3:35 PM 32.2 °F 24.4 °F 14.5 °F 48% 30.64 in 10.0 mi WNW 9.2 mph - N/A   Clear
3:55 PM 32.0 °F 25.6 °F 12.9 °F 45% 30.63 in 10.0 mi WNW 6.9 mph - N/A   Clear
4:15 PM 31.6 °F 23.7 °F 14.2 °F 49% 30.63 in 10.0 mi West 9.2 mph - N/A   Clear
4:35 PM 30.2 °F 22.6 °F 12.9 °F 49% 30.62 in 10.0 mi West 8.1 mph - N/A   Clear
4:55 PM 29.7 °F 22.8 °F 14.2 °F 53% 30.62 in 10.0 mi West 6.9 mph - N/A   Clear
5:15 PM 29.1 °F 22.1 °F 14.5 °F 55% 30.63 in 10.0 mi West 6.9 mph - N/A   Clear
5:35 PM 28.9 °F 21.9 °F 14.9 °F 56% 30.63 in 10.0 mi West 6.9 mph - N/A   Clear
5:55 PM 27.3 °F 19.9 °F 16.3 °F 63% 30.64 in 10.0 mi West 6.9 mph - N/A   Clear
6:15 PM 28.0 °F 20.8 °F 15.8 °F 60% 30.62 in 10.0 mi West 6.9 mph - N/A   Clear
6:35 PM 27.1 °F 18.9 °F 16.7 °F 65% 30.62 in 10.0 mi West 8.1 mph - N/A   Clear
6:55 PM 27.3 °F 19.9 °F 16.7 °F 64% 30.62 in 10.0 mi West 6.9 mph - N/A   Clear
7:15 PM 26.8 °F 20.2 °F 16.5 °F 65% 30.62 in 10.0 mi West 5.8 mph - N/A   Clear
7:35 PM 26.4 °F 18.9 °F 16.5 °F 66% 30.62 in 10.0 mi West 6.9 mph - N/A   Clear
7:55 PM 25.3 °F 17.6 °F 16.3 °F 69% 30.62 in 10.0 mi West 6.9 mph - N/A   Clear
8:15 PM 24.6 °F 17.7 °F 16.5 °F 71% 30.62 in 10.0 mi West 5.8 mph - N/A   Clear
8:35 PM 24.1 °F 18.2 °F 16.7 °F 73% 30.62 in 10.0 mi WSW 4.6 mph - N/A   Clear
8:55 PM 23.7 °F 16.6 °F 16.7 °F 75% 30.61 in 10.0 mi WSW 5.8 mph - N/A   Clear
9:15 PM 23.7 °F 16.6 °F 17.2 °F 76% 30.61 in 10.0 mi WSW 5.8 mph - N/A   Clear
9:35 PM 24.3 °F 16.3 °F 17.2 °F 75% 30.62 in 10.0 mi West 6.9 mph - N/A   Clear
9:55 PM 23.9 °F 15.8 °F 16.7 °F 74% 30.62 in 10.0 mi West 6.9 mph - N/A   Clear
10:15 PM 23.7 °F 15.6 °F 16.5 °F 74% 30.62 in 10.0 mi West 6.9 mph - N/A   Clear
10:35 PM 23.9 °F 15.8 °F 16.2 °F 72% 30.61 in 10.0 mi West 6.9 mph - N/A   Clear
10:55 PM 23.5 °F 15.4 °F 15.8 °F 72% 30.61 in 10.0 mi West 6.9 mph - N/A   Clear
11:15 PM 23.4 °F 16.2 °F 15.8 °F 73% 30.61 in 10.0 mi West 5.8 mph - N/A   Clear
11:35 PM 22.3 °F 13.9 °F 16.0 °F 77% 30.60 in 10.0 mi West 6.9 mph - N/A   Clear
11:55 PM 22.1 °F 13.7 °F 16.2 °F 78% 30.60 in 10.0 mi West 6.9 mph - N/A   Clear